FW8243 Weather Reports


time (UTC)temp
C
wind
direction
speed
KPH
gust
KPH
rain 1hr
cm
rain 24hr
cm
rain mn
cm
humidity
%
barometer
mb
20260507124553 -2 0 0.0 0.0 0.00 0.00 0.00 77 1011.6
20260507124048 -2 0 0.0 0.0 0.00 0.00 0.00 79 1011.4
20260507123545 -2 0 0.0 0.0 0.00 0.00 0.00 79 1011.4
20260507123111 -3 0 0.0 0.0 0.00 0.00 0.00 79 1011.4
20260507122545 -3 0 0.0 0.0 0.00 0.00 0.00 79 1011.3
20260507122044 -3 0 0.0 0.0 0.00 0.00 0.00 79 1011.3
20260507121554 -3 0 0.0 0.0 0.00 0.00 0.00 79 1011.3
20260507121045 -3 0 0.0 6.4 0.00 0.00 0.00 78 1011.4
20260507120544 -3 0 0.0 9.7 0.00 0.00 0.00 78 1011.3
20260507120050 -3 292 3.2 9.7 0.00 0.00 0.00 79 1011.2
20260507115545 -3 272 4.8 9.7 0.00 0.00 0.00 80 1011.1
20260507115049 -4 300 4.8 8.0 0.00 0.00 0.00 81 1011.1
20260507114607 -5 286 3.2 6.4 0.00 0.00 0.00 81 1011.0
20260507114047 -4 275 3.2 6.4 0.00 0.00 0.00 80 1010.7
20260507113544 -4 280 3.2 6.4 0.00 0.00 0.00 81 1010.6
20260507113058 -5 286 0.0 6.4 0.00 0.00 0.00 81 1010.6
20260507112545 -5 0 0.0 6.4 0.00 0.00 0.00 80 1010.6
20260507112045 -5 0 3.2 6.4 0.00 0.00 0.00 79 1010.5
20260507111557 -4 262 0.0 4.8 0.00 0.00 0.00 78 1010.5
20260507111044 -4 0 0.0 0.0 0.00 0.00 0.00 78 1010.5
20260507110544 -4 0 0.0 0.0 0.00 0.00 0.00 78 1010.4
20260507110054 -3 0 0.0 0.0 0.00 0.00 0.00 78 1010.5
20260507105544 -3 0 0.0 1.6 0.00 0.00 0.00 78 1010.5
20260507105047 -3 0 0.0 1.6 0.00 0.00 0.00 77 1010.5
20260507104559 -3 289 0.0 1.6 0.00 0.00 0.00 77 1010.4
20260507104047 -3 0 0.0 0.0 0.00 0.00 0.00 78 1010.4
20260507103551 -3 0 0.0 4.8 0.00 0.00 0.00 78 1010.4
20260507103051 -3 0 0.0 4.8 0.00 0.00 0.00 78 1010.3
20260507102548 -3 289 1.6 4.8 0.00 0.00 0.00 77 1010.4
20260507102050 -3 261 3.2 4.8 0.00 0.00 0.00 76 1010.5
20260507101553 -3 292 0.0 8.0 0.00 0.00 0.00 77 1010.4
20260507101048 -3 0 0.0 9.7 0.00 0.00 0.00 78 1010.3
20260507100544 -3 281 4.8 9.7 0.00 0.00 0.00 80 1010.2
20260507100100 -4 285 3.2 6.4 0.00 0.00 0.00 78 1010.3
20260507095545 -4 273 3.2 6.4 0.00 0.00 0.00 77 1010.2
20260507095047 -3 256 3.2 9.7 0.00 0.00 0.00 75 1010.1
20260507094551 -3 267 3.2 9.7 0.00 0.00 0.00 75 1010.1
20260507094047 -3 286 3.2 6.4 0.00 0.00 0.00 74 1010.1
20260507093547 -3 294 1.6 6.4 0.00 0.00 0.00 76 1010.0
20260507093054 -3 288 1.6 6.4 0.00 0.00 0.00 76 1010.0
20260507092547 -3 283 3.2 6.4 0.00 0.00 0.00 76 1009.8
20260507092048 -3 0 0.0 6.4 0.00 0.00 0.00 77 1009.8
20260507091600 -3 291 3.2 6.4 0.00 0.00 0.00 77 1009.8
20260507091048 -3 269 0.0 0.0 0.00 0.00 0.00 77 1009.8
20260507090548 -3 0 0.0 0.0 0.00 0.00 0.00 77 1009.9
20260507085547 -3 0 0.0 4.8 0.00 0.00 0.00 75 1010.0
20260507085045 -3 0 0.0 4.8 0.00 0.00 0.00 75 1009.9
20260507084555 -3 270 1.6 4.8 0.00 0.00 0.00 76 1010.0
20260507084045 -3 0 1.6 4.8 0.00 0.00 0.00 75 1010.0
20260507083547 -3 271 1.6 4.8 0.00 0.00 0.00 75 1010.0
20260507083057 -3 0 3.2 4.8 0.00 0.00 0.00 73 1010.0
20260507082544 -2 279 1.6 4.8 0.00 0.00 0.00 72 1010.1
20260507082044 -2 269 1.6 6.4 0.00 0.00 0.00 73 1010.1
20260507081556 -2 0 1.6 6.4 0.00 0.00 0.00 74 1010.1
20260507081044 -2 270 3.2 6.4 0.00 0.00 0.00 75 1010.2
20260507080544 -2 265 3.2 6.4 0.00 0.00 0.00 74 1010.1
20260507075548 -2 279 1.6 6.4 0.00 0.00 0.00 72 1010.2
20260507075045 -2 277 3.2 6.4 0.00 0.00 0.00 72 1010.3
20260507074550 -2 289 0.0 4.8 0.00 0.00 0.00 72 1010.3
20260507074047 -2 0 1.6 9.7 0.00 0.00 0.00 72 1010.2
20260507073548 -2 271 1.6 9.7 0.00 0.00 0.00 71 1010.3
20260507073059 -2 267 3.2 9.7 0.00 0.00 0.00 72 1010.3
20260507072545 -2 283 3.2 6.4 0.00 0.00 0.00 70 1010.5
20260507072045 -1 273 1.6 6.4 0.00 0.00 0.00 69 1010.6
20260507071604 -1 0 0.0 0.0 0.00 0.00 0.00 70 1010.5
20260507071044 -1 0 0.0 0.0 0.00 0.00 0.00 70 1010.6
20260507070544 -1 0 0.0 4.8 0.00 0.00 0.00 70 1010.7
20260507065547 -1 269 1.6 4.8 0.00 0.00 0.00 70 1010.8
20260507065044 -1 0 0.0 4.8 0.00 0.00 0.00 71 1010.8
20260507064634 -2 265 1.6 4.8 0.00 0.00 0.00 70 1010.8
20260507064044 -1 265 3.2 4.8 0.00 0.00 0.00 68 1010.7
20260507063544 -1 0 0.0 4.8 0.00 0.00 0.00 69 1010.8
20260507063109 -1 255 1.6 4.8 0.00 0.00 0.00 67 1010.8
20260507062548 -1 0 1.6 4.8 0.00 0.00 0.00 68 1010.8
20260507062044 -1 275 1.6 4.8 0.00 0.00 0.00 67 1010.8
20260507061555 -1 0 1.6 4.8 0.00 0.00 0.00 68 1010.8
20260507061048 -1 280 1.6 4.8 0.00 0.00 0.00 68 1010.8
20260507060549 -1 305 3.2 4.8 0.00 0.00 0.00 66 1010.8
20260507060111 0 284 1.6 6.4 0.00 0.00 0.00 65 1010.8
20260507055547 0 276 3.2 6.4 0.00 0.00 0.00 64 1010.9
20260507055045 0 281 3.2 9.7 0.00 0.00 0.00 62 1010.7
20260507054602 0 288 4.8 9.7 0.00 0.00 0.00 62 1010.8
20260507054045 0 283 4.8 9.7 0.00 0.00 0.00 62 1010.7
20260507053545 0 287 6.4 9.7 0.00 0.00 0.00 63 1010.7
20260507053101 1 267 4.8 11.3 0.00 0.00 0.00 60 1010.8
20260507052547 1 282 4.8 11.3 0.00 0.00 0.00 59 1010.7
20260507052044 1 301 6.4 11.3 0.00 0.00 0.00 61 1010.8
20260507051605 0 302 1.6 4.8 0.00 0.00 0.00 63 1010.8
20260507051045 0 291 1.6 4.8 0.00 0.00 0.00 63 1010.8
20260507050544 0 269 1.6 6.4 0.00 0.00 0.00 61 1010.7
20260507050053 1 281 1.6 9.7 0.00 0.00 0.00 60 1010.9
20260507045548 1 280 3.2 9.7 0.00 0.00 0.00 61 1011.1
20260507045048 0 288 4.8 9.7 0.00 0.00 0.00 64 1011.2
20260507044556 0 273 6.4 9.7 0.00 0.00 0.00 62 1011.2
20260507044051 1 272 3.2 11.3 0.00 0.00 0.00 60 1011.2
20260507043545 1 278 4.8 11.3 0.00 0.00 0.00 58 1011.4
20260507043058 2 271 8.0 11.3 0.00 0.00 0.00 56 1011.5
20260507042545 2 291 4.8 9.7 0.00 0.00 0.00 57 1011.5
20260507042044 2 281 4.8 11.3 0.00 0.00 0.00 58 1011.6
20260507041554 2 277 4.8 11.3 0.00 0.00 0.00 57 1011.5
20260507041047 3 235 3.2 11.3 0.00 0.00 0.00 54 1011.5
20260507040545 2 295 6.4 11.3 0.00 0.00 0.00 55 1011.5
20260507040057 2 286 3.2 6.4 0.00 0.00 0.00 56 1011.6
20260507035547 2 288 4.8 6.4 0.00 0.00 0.00 56 1011.6
20260507035045 2 292 3.2 8.0 0.00 0.00 0.00 56 1011.6
20260507034552 3 257 3.2 8.0 0.00 0.00 0.00 55 1011.7
20260507034048 3 269 3.2 8.0 0.00 0.00 0.00 54 1011.8
20260507033547 3 273 3.2 9.7 0.00 0.00 0.00 52 1011.8
20260507033051 5 276 4.8 9.7 0.00 0.00 0.00 50 1011.8
20260507032545 5 283 3.2 8.0 0.00 0.00 0.00 49 1011.9
20260507032044 5 286 3.2 9.7 0.00 0.00 0.00 50 1011.9
20260507031553 4 279 4.8 9.7 0.00 0.00 0.00 53 1012.1
20260507031049 4 284 4.8 9.7 0.00 0.00 0.00 52 1012.2
20260507030548 5 0 0.0 11.3 0.00 0.00 0.00 49 1012.2
20260507030053 5 293 3.2 11.3 0.00 0.00 0.00 50 1012.2
20260507025544 4 284 6.4 11.3 0.00 0.00 0.00 53 1012.3
20260507025044 3 265 4.8 8.0 0.00 0.00 0.00 54 1012.2
20260507024550 5 259 3.2 6.4 0.00 0.00 0.00 51 1012.2
20260507024047 5 273 4.8 6.4 0.00 0.00 0.00 48 1012.2
20260507023548 6 288 3.2 6.4 0.00 0.00 0.00 47 1012.2
20260507023056 6 285 3.2 6.4 0.00 0.00 0.00 45 1012.3
20260507022547 7 301 1.6 3.2 0.00 0.00 0.00 42 1012.3
20260507022045 7 0 0.0 4.8 0.00 0.00 0.00 41 1012.2
20260507021550 8 0 1.6 4.8 0.00 0.00 0.00 42 1012.3
20260507021044 8 0 0.0 0.0 0.00 0.00 0.00 41 1012.3
20260507020545 8 0 0.0 0.0 0.00 0.00 0.00 40 1012.3
20260507020106 10 0 0.0 0.0 0.00 0.00 0.00 37 1012.3
20260507015548 11 0 0.0 0.0 0.00 0.00 0.00 35 1012.3
20260507015048 11 0 0.0 0.0 0.00 0.00 0.00 34 1012.3
20260507014558 11 0 0.0 0.0 0.00 0.00 0.00 32 1012.3
20260507014047 11 0 0.0 0.0 0.00 0.00 0.00 31 1012.3
20260507013548 12 0 0.0 0.0 0.00 0.00 0.00 30 1012.3
20260507013050 12 0 0.0 0.0 0.00 0.00 0.00 29 1012.3
20260507012548 12 0 0.0 1.6 0.00 0.00 0.00 28 1012.3
20260507012048 12 0 0.0 1.6 0.00 0.00 0.00 28 1012.3
20260507011550 13 0 0.0 1.6 0.00 0.00 0.00 26 1012.2
20260507011047 13 0 0.0 4.8 0.00 0.00 0.00 27 1012.3
20260507010547 13 0 0.0 9.7 0.00 0.00 0.00 26 1012.3
20260507010101 13 107 1.6 9.7 0.00 0.00 0.00 26 1012.3
20260507005547 13 114 3.2 11.3 0.00 0.00 0.00 27 1012.3
20260507005045 13 109 3.2 11.3 0.00 0.00 0.00 27 1012.3
20260507004550 13 155 6.4 11.3 0.00 0.00 0.00 27 1012.4
20260507004045 13 131 1.6 11.3 0.00 0.00 0.00 27 1012.5
20260507003548 13 116 6.4 11.3 0.00 0.00 0.00 27 1012.6
20260507003050 13 167 1.6 8.0 0.00 0.00 0.00 27 1012.7
20260507002548 13 109 3.2 9.7 0.00 0.00 0.00 26 1012.8
20260507002047 13 139 0.0 12.9 0.00 0.00 0.00 26 1012.9
20260507001556 13 87 4.8 12.9 0.00 0.00 0.00 26 1013.0
20260507001046 13 136 3.2 12.9 0.00 0.00 0.00 25 1013.1
20260507000549 13 167 6.4 12.9 0.00 0.00 0.00 26 1013.1
20260507000051 13 111 6.4 12.9 0.00 0.00 0.00 25 1013.3
20260506235547 13 133 0.0 12.9 0.00 0.00 0.00 27 1013.3
20260506235047 13 131 4.8 14.5 0.00 0.00 0.00 25 1013.4
20260506234553 13 171 3.2 14.5 0.00 0.00 0.00 25 1013.5
20260506234044 13 78 4.8 16.1 0.00 0.00 0.00 25 1013.5
20260506233547 14 184 4.8 16.1 0.00 0.00 0.00 25 1013.6
20260506233049 14 110 8.0 16.1 0.00 0.00 0.00 25 1013.6
20260506232544 13 0 3.2 11.3 0.00 0.00 0.00 25 1013.6
20260506232048 14 214 4.8 17.7 0.00 0.00 0.00 26 1013.6
20260506231606 13 194 9.7 17.7 0.00 0.00 0.00 26 1013.6
20260506231048 13 235 8.0 17.7 0.00 0.00 0.00 25 1013.7
20260506230543 13 186 6.4 19.3 0.00 0.00 0.00 25 1013.7
20260506230109 13 269 11.3 22.5 0.00 0.00 0.00 25 1013.8
20260506225548 14 252 11.3 22.5 0.00 0.00 0.00 25 1013.8
20260506225047 14 229 8.0 19.3 0.00 0.00 0.00 24 1013.9
20260506224550 14 234 3.2 17.7 0.00 0.00 0.00 25 1013.8
20260506224046 14 267 4.8 22.5 0.00 0.00 0.00 26 1013.9
20260506223550 14 153 3.2 22.5 0.00 0.00 0.00 25 1014.0
20260506223056 14 192 12.9 22.5 0.00 0.00 0.00 25 1014.1
20260506222547 13 218 14.5 22.5 0.00 0.00 0.00 25 1014.2
20260506222055 13 234 9.7 22.5 0.00 0.00 0.00 26 1014.3
20260506221610 13 236 14.5 22.5 0.00 0.00 0.00 26 1014.3
20260506221048 13 267 8.0 19.3 0.00 0.00 0.00 27 1014.3
20260506220546 13 334 8.0 20.9 0.00 0.00 0.00 27 1014.4
20260506220105 13 288 9.7 20.9 0.00 0.00 0.00 28 1014.5
20260506215548 12 309 16.1 20.9 0.00 0.00 0.00 27 1014.6
20260506215048 13 284 6.4 17.7 0.00 0.00 0.00 27 1014.7
20260506214555 12 61 4.8 17.7 0.00 0.00 0.00 28 1014.7
20260506214048 12 102 3.2 19.3 0.00 0.00 0.00 28 1014.9
20260506213547 12 276 6.4 19.3 0.00 0.00 0.00 28 1015.0
20260506213109 12 294 11.3 19.3 0.00 0.00 0.00 27 1015.1
20260506212548 12 260 11.3 19.3 0.00 0.00 0.00 28 1015.2
20260506212048 13 279 12.9 20.9 0.00 0.00 0.00 27 1015.2
20260506211555 12 286 12.9 25.7 0.00 0.00 0.00 28 1015.3
20260506211044 12 310 12.9 25.7 0.00 0.00 0.00 27 1015.3
20260506210548 13 303 12.9 20.9 0.00 0.00 0.00 27 1015.5
20260506210100 12 241 9.7 22.5 0.00 0.00 0.00 28 1015.6
20260506205547 12 247 6.4 29.0 0.00 0.00 0.00 28 1015.6
20260506205049 12 229 16.1 29.0 0.00 0.00 0.00 28 1015.7
20260506204605 12 248 12.9 20.9 0.00 0.00 0.00 28 1015.8
20260506204048 11 298 8.0 16.1 0.00 0.00 0.00 28 1015.9
20260506203548 12 321 11.3 22.5 0.00 0.00 0.00 28 1016.0
20260506203054 12 252 12.9 22.5 0.00 0.00 0.00 28 1016.1
20260506202548 12 298 4.8 35.4 0.00 0.00 0.00 28 1016.1
20260506202045 12 229 8.0 35.4 0.00 0.00 0.00 28 1016.3
20260506201553 12 273 12.9 35.4 0.00 0.00 0.00 28 1016.4
20260506201048 12 62 14.5 25.7 0.00 0.00 0.00 29 1016.4
20260506200546 12 355 3.2 19.3 0.00 0.00 0.00 29 1016.5
20260506200053 12 269 11.3 24.1 0.00 0.00 0.00 29 1016.7
20260506195552 11 325 12.9 24.1 0.00 0.00 0.00 28 1016.7
20260506195047 12 321 12.9 24.1 0.00 0.00 0.00 28 1016.7
20260506194557 11 355 8.0 17.7 0.00 0.00 0.00 30 1016.8
20260506194048 11 76 1.6 24.1 0.00 0.00 0.00 29 1016.8
20260506193547 11 54 9.7 24.1 0.00 0.00 0.00 30 1017.0
20260506193054 11 288 12.9 27.4 0.00 0.00 0.00 29 1017.0
20260506192548 11 317 14.5 27.4 0.00 0.00 0.00 29 1017.2
20260506192048 11 259 6.4 25.7 0.00 0.00 0.00 30 1017.1
20260506191604 11 296 16.1 25.7 0.00 0.00 0.00 30 1017.2
20260506191048 11 311 8.0 20.9 0.00 0.00 0.00 30 1017.3
20260506190547 11 301 6.4 14.5 0.00 0.00 0.00 31 1017.2
20260506190050 11 348 3.2 32.2 0.00 0.00 0.00 29 1017.4
20260506185547 11 279 14.5 32.2 0.00 0.00 0.00 32 1017.5
20260506185046 11 311 19.3 30.6 0.00 0.00 0.00 30 1017.6
20260506184622 11 292 17.7 27.4 0.00 0.00 0.00 31 1017.8
20260506184044 11 262 8.0 27.4 0.00 0.00 0.00 30 1017.8
20260506183551 11 280 14.5 25.7 0.00 0.00 0.00 30 1017.8
20260506183049 11 336 6.4 17.7 0.00 0.00 0.00 31 1017.8
20260506182544 10 324 6.4 17.7 0.00 0.00 0.00 32 1018.0
20260506182051 10 285 9.7 29.0 0.00 0.00 0.00 32 1018.1
20260506181549 10 303 17.7 29.0 0.00 0.00 0.00 31 1018.3
20260506181048 10 304 8.0 29.0 0.00 0.00 0.00 32 1018.3
20260506180548 10 331 6.4 29.0 0.00 0.00 0.00 32 1018.3
20260506180053 10 337 12.9 29.0 0.00 0.00 0.00 32 1018.5
20260506175547 10 57 6.4 30.6 0.00 0.00 0.00 33 1018.6
20260506175050 10 281 19.3 30.6 0.00 0.00 0.00 31 1018.6
20260506174549 10 281 6.4 25.7 0.00 0.00 0.00 32 1018.5
20260506174047 10 272 12.9 25.7 0.00 0.00 0.00 31 1018.7
20260506173547 10 271 12.9 25.7 0.00 0.00 0.00 31 1018.9
20260506173053 9 304 14.5 22.5 0.00 0.00 0.00 32 1018.9
20260506172544 9 285 6.4 27.4 0.00 0.00 0.00 33 1018.9
20260506172048 9 329 8.0 29.0 0.00 0.00 0.00 32 1018.9
20260506171603 8 266 14.5 53.1 0.00 0.00 0.00 32 1019.0
20260506171044 9 333 19.3 53.1 0.00 0.00 0.00 32 1019.1
20260506170548 9 300 11.3 29.0 0.00 0.00 0.00 34 1019.1
20260506170057 8 115 6.4 29.0 0.00 0.00 0.00 33 1019.1
20260506165548 8 360 19.3 30.6 0.00 0.00 0.00 33 1019.3
20260506165048 8 298 20.9 30.6 0.00 0.00 0.00 33 1019.3
20260506164551 9 324 9.7 16.1 0.00 0.00 0.00 35 1019.3
20260506164048 8 291 3.2 29.0 0.00 0.00 0.00 35 1019.4
20260506163546 8 317 16.1 29.0 0.00 0.00 0.00 36 1019.6
20260506163056 8 302 9.7 29.0 0.00 0.00 0.00 36 1019.5
20260506162548 8 279 19.3 29.0 0.00 0.00 0.00 35 1019.6
20260506162044 8 68 12.9 29.0 0.00 0.00 0.00 34 1019.6
20260506161553 8 289 16.1 30.6 0.00 0.00 0.00 35 1019.7
20260506161050 8 342 8.0 30.6 0.00 0.00 0.00 36 1019.6
20260506160549 7 340 12.9 30.6 0.00 0.00 0.00 35 1019.6
20260506160107 7 297 14.5 25.7 0.00 0.00 0.00 35 1019.7
20260506155548 7 325 17.7 25.7 0.00 0.00 0.00 35 1019.8
20260506155047 7 355 14.5 27.4 0.00 0.00 0.00 38 1019.8
20260506154554 7 323 17.7 27.4 0.00 0.00 0.00 36 1019.8
20260506154051 8 319 16.1 29.0 0.00 0.00 0.00 36 1019.8
20260506153546 7 302 17.7 29.0 0.00 0.00 0.00 38 1019.9
20260506153055 7 352 14.5 24.1 0.00 0.00 0.00 39 1019.9
20260506152548 7 318 16.1 24.1 0.00 0.00 0.00 39 1020.0
20260506152047 7 352 16.1 24.1 0.00 0.00 0.00 37 1020.0
20260506151557 7 312 9.7 24.1 0.00 0.00 0.00 39 1020.0
20260506151047 7 331 14.5 24.1 0.00 0.00 0.00 39 1020.1
20260506150544 6 325 12.9 20.9 0.00 0.00 0.00 40 1019.9
20260506150055 6 335 9.7 19.3 0.00 0.00 0.00 40 1020.0
20260506145548 6 296 8.0 19.3 0.00 0.00 0.00 40 1020.0
20260506145049 6 317 9.7 19.3 0.00 0.00 0.00 42 1020.0
20260506144601 6 330 12.9 20.9 0.00 0.00 0.00 41 1020.0
20260506144044 6 294 12.9 20.9 0.00 0.00 0.00 42 1020.1
20260506143548 6 327 11.3 20.9 0.00 0.00 0.00 42 1020.0
20260506143055 6 321 14.5 20.9 0.00 0.00 0.00 43 1020.1
20260506142547 6 323 14.5 20.9 0.00 0.00 0.00 43 1020.0
20260506142047 6 302 11.3 17.7 0.00 0.00 0.00 44 1020.1
20260506141559 5 308 8.0 16.1 0.00 0.00 0.00 45 1020.2
20260506141047 5 360 0.0 9.7 0.00 0.00 0.00 50 1020.2
20260506140547 4 360 4.8 11.3 0.00 0.00 0.00 52 1020.3
20260506140055 3 360 6.4 12.9 0.00 0.00 0.00 54 1020.4
20260506135546 3 161 6.4 14.5 0.00 0.00 0.00 56 1020.4
20260506135046 2 360 6.4 14.5 0.00 0.00 0.00 58 1020.4
20260506134601 2 360 9.7 14.5 0.00 0.00 0.00 59 1020.4
20260506134048 1 360 8.0 14.5 0.00 0.00 0.00 60 1020.4
20260506133547 1 173 8.0 14.5 0.00 0.00 0.00 61 1020.4
20260506133100 1 191 8.0 14.5 0.00 0.00 0.00 61 1020.4
20260506132552 0 174 6.4 11.3 0.00 0.00 0.00 63 1020.4
20260506132052 0 360 6.4 11.3 0.00 0.00 0.00 64 1020.4
20260506131607 0 360 4.8 11.3 0.00 0.00 0.00 65 1020.4
20260506131048 0 168 4.8 9.7 0.00 0.00 0.00 65 1020.4
20260506130548 0 181 4.8 9.7 0.00 0.00 0.00 68 1020.4
20260506130056 -1 181 4.8 11.3 0.00 0.00 0.00 69 1020.4
20260506125546 -1 194 6.4 11.3 0.00 0.00 0.00 69 1020.4
20260506125047 -1 192 6.4 9.7 0.00 0.00 0.00 70 1020.4